CAPE
228 382 559 620 579 601 698 731 808 744 664 699 834 1192 1478 1731 1599 1442 1497 1464 1204 1046 1045 1012 1064 1189 1249 1315 1295 1233 1155 1051 959 925 1298 1276 564 116 87 458 304 350 314
289 305 199 180 204 228 188 191 153 118 173 317 463 616 947 1397 1721 1514 1348 1680 1297 1436 1460 1420 1322 1220 1080 1257 1478 1206 1191 1176 859 750 886 1097 246 122 356 180 170 236 193
13 5 20 114 166 163 105 77 9 17 94 211 324 421 576 753 997 1387 1421 1359 1513 1687 1564 1578 1601 1540 1191 1223 1307 1253 1295 1266 1102 929 931 853 825 118 139 100 430 420 291
0 0 0 23 73 58 21 23 27 109 207 278 309 379 469 583 756 899 1041 1179 1220 1388 1573 1549 1641 1658 1639 1498 1301 1237 1270 1339 1324 1055 926 676 573 375 368 669 607 301 444
0 0 0 0 0 15 51 67 97 168 257 299 346 385 440 563 715 866 1027 1178 1150 1091 1116 1164 1249 1434 1369 1442 1441 1409 1364 1223 1406 1139 878 587 554 484 486 419 600 471 289
0 0 0 0 6 62 99 100 124 180 156 129 129 175 300 482 553 548 519 949 960 1010 936 944 1034 967 802 612 578 920 1343 1254 1100 990 749 747 737 856 683 482 537 602 817
0 0 0 0 4 79 105 93 42 0 3 0 0 15 59 215 268 207 111 495 690 602 632 760 865 769 662 961 603 218 277 550 979 1161 978 1012 999 956 811 513 444 608 707
0 0 0 0 16 93 70 4 0 0 0 0 0 0 0 54 57 28 5 146 273 307 428 426 565 1086 808 690 680 449 154 165 199 345 398 657 662 835 971 863 657 522 402
0 0 10 29 60 119 39 0 0 0 0 0 0 0 20 103 106 43 1 6 102 129 245 339 632 850 790 435 416 317 203 103 44 4 23 43 34 194 606 598 331 341 435
27 20 46 52 64 41 2 0 0 0 0 0 0 89 179 232 201 239 1 1 17 181 281 241 290 430 602 347 155 164 56 33 20 57 2 0 0 18 4 534 513 340 186
0 9 61 63 4 0 0 0 0 0 0 0 15 168 230 62 75 121 1 3 2 17 310 370 499 482 216 2 1 98 58 155 41 81 110 108 79 66 81 125 480 366 96
0 21 39 23 31 32 0 0 0 0 0 1 0 30 81 36 44 12 0 0 0 1 1 40 307 351 111 2 1 0 1 7 15 11 80 98 182 228 237 115 239 289 248
13 8 0 0 1 0 0 0 0 0 7 2 0 12 34 85 13 0 0 0 0 1 1 0 1 1 2 1 1 1 1 0 0 2 4 30 62 50 409 222 225 378 204
26 29 0 0 0 0 0 1 1 2 18 2 10 5 0 0 0 0 1 1 0 1 4 1 0 1 1 1 1 0 1 3 1 2 5 13 0 23 133 195 132 71 28
5 0 0 0 0 0 0 1 1 0 2 3 23 6 0 0 0 0 0 1 0 0 1 4 1 1 1 1 1 2 5 5 4 7 13 5 0 3 100 212 160 10 24
0 1 1 1 3 2 1 7 10 0 0 0 0 1 0 0 0 1 0 1 1 0 0 5 6 1 1 1 1 1 1 8 20 24 37 13 1 1 72 18 25 7 1
3 6 2 0 8 14 36 24 15 1 3 8 24 1 1 0 1 1 1 1 0 0 73 19 11 2 2 2 1 2 3 1 1 15 51 23 17 14 10 2 0 0 0
0 0 3 10 36 34 47 36 28 9 22 36 3 0 1 1 1 1 0 0 27 7 31 8 1 1 1 1 1 1 1 2 2 1 1 1 1 1 0 3 2 2 2
18 23 28 30 29 31 19 40 51 29 20 3 5 1 1 1 1 1 1 0 14 8 0 0 0 0 0 0 0 1 0 0 1 1 1 1 2 1 1 1 1 0 0
8 7 1 1 5 21 27 50 37 20 10 10 0 27 0 0 0 0 13 15 44 9 0 0 0 0 0 0 0 0 0 0 0 0 0 1 1 1 2 2 2 1 1
17 3 0 0 0 2 30 26 32 13 0 0 0 1 1 2 0 4 17 39 67 17 11 4 0 0 0 0 0 0 0 0 0 0 0 0 0 0 0 0 0 0 0
11 5 0 0 0 1 1 0 5 0 0 0 2 0 0 6 10 1 3 21 10 21 19 15 31 34 24 19 19 20 17 14 8 0 0 0 0 0 0 0 0 0 0
6 2 0 1 2 2 2 4 3 0 0 0 1 4 5 3 0 0 0 0 35 1 2 7 12 56 39 72 68 54 61 51 36 23 8 0 0 0 0 0 0 0 0
6 6 5 4 3 1 3 5 5 1 0 0 0 4 5 3 1 0 0 3 2 2 1 0 0 0 2 26 53 31 52 62 47 83 89 68 44 8 22 14 10 0 0
3 4 6 6 6 5 2 3 5 8 7 2 0 0 4 2 0 1 3 5 1 5 4 5 0 0 0 0 0 0 0 0 0 0 24 69 38 23 32 27 8 10 6
0 4 7 4 5 7 5 5 7 9 5 4 3 2 0 3 1 0 2 2 4 5 0 1 6 2 2 2 1 0 0 0 0 0 0 16 21 0 0 0 0 0 0
CIN
-252 -240 -227 -218 -225 -277 -236 -218 -186 -172 -165 -133 -106 -65 -37 -29 -49 -50 -40 -27 -22 -37 -57 -67 -71 -38 -57 -75 -62 -35 -31 -33 -32 -81 -30 -46 -125 -254 -219 -117 -156 -117 -108
-225 -223 -242 -262 -235 -214 -258 -270 -288 -310 -303 -215 -151 -89 -48 -9 -1 -13 -20 -10 -15 -4 -11 -26 -67 -58 -95 -85 -21 -47 -36 -37 -54 -93 -68 -73 -208 -242 -145 -177 -191 -185 -190
-275 -303 -370 -343 -266 -236 -264 -297 -288 -363 -284 -217 -152 -110 -64 -47 -13 -0 -3 -7 -1 -0 -0 -4 -19 -26 -91 -65 -23 -14 -27 -26 -55 -75 -91 -100 -110 -293 -277 -265 -160 -172 -156
-0 -0 -0 -367 -312 -306 -345 -330 -308 -220 -169 -131 -119 -95 -76 -55 -27 -10 -1 -0 -1 -0 -0 -0 -0 -0 -0 -21 -30 -28 -19 -10 -9 -43 -80 -125 -133 -213 -178 -128 -171 -174 -111
-0 -0 -0 -0 -0 -376 -303 -298 -261 -163 -98 -68 -44 -58 -68 -39 -28 -13 -0 -0 -0 -0 -0 -0 -0 -0 -0 -1 -2 -20 -10 -7 -0 -13 -61 -119 -147 -147 -177 -159 -200 -187 -182
-0 -0 -0 -0 -395 -316 -256 -261 -225 -147 -149 -144 -116 -63 -54 -53 -52 -66 -51 -0 -0 -0 -0 -0 -0 -2 -20 -68 -92 -51 -2 -3 -2 -10 -61 -73 -126 -105 -132 -189 -161 -172 -76
-0 -0 -0 -0 -266 -245 -209 -219 -297 -0 -270 -0 -0 -156 -129 -96 -130 -154 -184 -9 -0 -0 -0 -0 -0 -2 -20 -3 -60 -208 -154 -91 -24 -2 -18 -30 -34 -83 -71 -177 -210 -167 -122
-0 -0 -0 -0 -244 -171 -185 -155 -0 -0 -0 -0 -0 -0 -0 -167 -225 -270 -126 -74 -20 -41 -28 -47 -14 -0 -2 -20 -13 -37 -162 -172 -194 -144 -97 -71 -54 -47 -26 -41 -95 -122 -202
-0 -0 -231 -221 -178 -134 -172 -3 -0 -0 -0 -0 -0 -71 -98 -93 -119 -186 -0 -178 -76 -116 -92 -64 -7 -0 -0 -44 -12 -39 -80 -185 -320 -62 -85 -380 -427 -209 -57 -43 -107 -66 -130
-208 -236 -232 -175 -124 -127 -60 -0 -0 -0 -0 -0 -0 -70 -44 -18 -34 -15 -8 -0 -33 -64 -76 -75 -65 -20 -7 -45 -80 -64 -144 -280 -330 -277 -27 -16 -0 -421 -80 -70 -55 -48 -125
-0 -140 -202 -200 -137 -0 -0 -0 -0 -0 -0 -0 -69 -53 -38 -63 -40 -4 -4 -0 -0 -74 -29 -23 -10 -19 -64 -0 -0 -74 -154 -125 -232 -194 -126 -120 -176 -217 -272 -244 -59 -63 -188
-0 -186 -186 -213 -202 -129 -0 -58 -0 -0 -0 -0 -0 -76 -80 -103 -50 -91 -0 -0 -0 -0 -0 -51 -8 -4 -65 -0 -0 -0 -0 -73 -72 -58 -110 -133 -118 -118 -124 -195 -123 -67 -116
-174 -176 -0 -0 -28 -3 -0 -0 -0 -0 -48 -0 -37 -135 -106 -73 -109 -0 -0 -0 -0 -0 -0 -0 -0 -0 -0 -0 -0 -0 -0 -0 -0 -0 -0 -219 -178 -113 -8 -46 -38 -20 -69
-130 -104 -0 -0 -0 -0 -0 -0 -0 -16 -39 -80 -108 -145 -30 -0 -0 -0 -0 -0 -0 -0 -0 -0 -0 -0 -0 -0 -0 -0 -0 -0 -0 -0 -0 -52 -0 -0 -7 -5 -22 -41 -97
-98 -0 -0 -0 -0 -0 -0 -0 -0 -32 -32 -67 -100 -110 -0 -0 -0 -0 -0 -0 -0 -0 -0 -0 -0 -0 -0 -0 -0 -0 -0 -0 -0 -0 -0 -0 -0 -5 -2 -4 -10 -158 -147
-0 -16 -0 -0 -60 -34 -9 -27 -44 -0 -0 -0 -0 -0 -0 -0 -0 -0 -0 -0 -0 -0 -0 -0 -0 -0 -0 -0 -0 -0 -0 -128 -123 -101 -53 -41 -0 -0 -0 -14 -134 -149 -0
-0 -34 -13 -6 -22 -10 -0 -0 -5 -4 -69 -82 -138 -0 -0 -0 -0 -0 -0 -0 -0 -0 -6 -22 -40 -0 -0 -0 -0 -0 -145 -0 -0 -139 -63 -42 -70 -86 -1 -1 -0 -0 -0
-0 -10 -57 -33 -33 -7 -0 -0 -0 -11 -23 -81 -39 -0 -0 -0 -0 -0 -0 -0 -116 -38 -22 -42 -0 -0 -0 -0 -0 -0 -0 -21 -0 -0 -0 -0 -0 -0 -0 -48 -31 -0 -0
-16 -14 -32 -50 -43 -14 -9 -6 -4 -16 -44 -50 -197 -44 -0 -0 -0 -0 -0 -34 -132 -21 -0 -0 -0 -0 -0 -0 -0 -0 -0 -0 -0 -0 -0 -0 -0 -0 -0 -0 -0 -0 -0
-35 -32 -80 -29 -76 -49 -43 -38 -33 -19 -58 -83 -0 -139 -0 -0 -0 -0 -214 -208 -103 -110 -0 -0 -0 -0 -0 -0 -0 -0 -0 -0 -0 -0 -0 -0 -0 -0 -0 -0 -0 -0 -0
-35 -0 -0 -0 -0 -69 -81 -67 -59 -57 -0 -0 -0 -97 -171 -214 -0 -136 -183 -162 -114 -119 -121 -107 -2 -0 -0 -0 -0 -0 -0 -0 -23 -0 -0 -0 -0 -0 -0 -0 -0 -0 -0
-0 -1 -0 -0 -0 -0 -42 -0 -78 -0 -0 -0 -27 -9 -0 -212 -209 -59 -147 -171 -177 -201 -158 -172 -124 -107 -92 -82 -85 -71 -64 -60 -61 -0 -0 -0 -0 -0 -0 -0 -0 -0 -0
-0 -0 -0 -0 -0 -0 -0 -0 -0 -0 -0 -0 -0 -0 -0 -0 -0 -0 -155 -12 -177 -37 -76 -170 -120 -93 -124 -91 -84 -78 -53 -63 -77 -84 -49 -0 -0 -0 -0 -0 -0 -0 -0
-0 -0 -0 -0 -0 -0 -0 -0 -0 -0 -0 -0 -0 -0 -0 -0 -0 -0 -0 -0 -34 -11 -0 -0 -0 -0 -22 -130 -128 -114 -100 -94 -106 -84 -88 -83 -74 -92 -61 -58 -49 -0 -0
-0 -0 -0 -0 -0 -0 -0 -0 -0 -0 -0 -0 -0 -0 -0 -0 -0 -0 -0 -0 -0 -0 -0 -0 -0 -0 -0 -0 -0 -0 -0 -0 -0 -0 -189 -114 -110 -118 -90 -74 -76 -69 -74
-0 -0 -0 -0 -0 -0 -0 -0 -0 -0 -0 -0 -0 -0 -0 -0 -0 -0 -0 -0 -0 -0 -0 -0 -0 -0 -0 -0 -0 -0 -0 -0 -0 -0 -0 -84 -96 -3 -0 -0 -0 -0 -0
Wind_Speed
1 3 5 6 6 5 5 6 6 5 6 7 9 10 10 11 11 10 11 11 12 12 12 14 15 13 10 9 8 9 10 9 12 10 6 7 6 7 6 7 6 6 6
3 4 7 7 6 6 7 8 7 8 7 8 9 10 11 11 10 10 11 10 14 13 14 14 16 9 11 9 9 13 12 11 9 14 9 7 8 5 6 5 5 4 4
5 6 6 6 7 9 10 10 8 8 9 8 7 10 11 11 11 11 11 12 13 14 14 15 16 12 12 10 13 12 11 10 11 9 10 6 7 3 4 4 5 2 3
3 5 6 8 9 10 10 9 8 9 9 10 10 10 11 11 11 12 12 13 13 13 14 15 15 15 16 16 14 15 12 11 11 10 9 8 6 4 4 5 4 3 3
5 6 8 8 9 10 11 9 8 9 9 9 10 11 11 11 10 11 12 13 13 14 14 14 16 19 23 20 12 15 14 12 10 10 9 7 8 5 6 4 5 2 2
5 8 9 9 10 12 11 9 8 9 9 9 10 11 12 10 13 15 15 13 13 14 13 13 15 20 21 22 21 22 15 13 13 11 9 11 12 10 6 7 4 3 1
6 8 10 10 11 12 11 8 7 8 8 9 10 11 12 13 15 17 18 13 14 13 14 13 13 11 15 15 17 19 21 20 23 14 13 13 11 10 7 8 7 5 6
8 8 10 10 12 11 10 8 7 7 8 8 10 11 11 12 16 16 16 14 14 15 14 14 15 15 14 14 15 13 15 14 15 12 14 15 11 7 10 7 6 5 4
9 9 10 10 11 11 9 8 7 6 8 9 9 11 10 12 13 15 11 9 11 15 13 14 15 14 16 15 13 14 14 15 16 17 17 13 12 11 9 5 6 6 4
8 11 10 10 10 9 7 9 6 5 9 9 11 10 11 11 11 11 9 5 9 9 11 12 17 17 14 15 16 14 13 14 13 13 14 14 14 13 14 14 8 8 3
8 10 8 7 7 8 7 7 8 8 8 11 10 9 9 8 9 11 11 4 6 7 8 9 9 14 17 15 19 14 16 11 12 12 11 10 11 11 10 13 13 10 8
8 7 7 7 6 7 6 8 8 7 8 9 8 8 6 5 8 8 9 9 8 5 8 8 9 12 15 15 12 18 15 11 7 8 9 11 11 11 11 12 13 11 8
6 7 7 7 7 8 7 8 7 6 6 7 5 6 7 6 6 9 8 9 11 8 7 10 12 11 13 9 17 19 14 9 8 9 10 11 10 10 9 11 11 12 10
8 8 6 6 8 8 6 6 6 6 6 5 5 7 8 6 6 4 6 7 9 9 10 8 8 9 10 8 5 10 7 8 10 10 10 7 4 9 10 9 7 8 6
7 7 7 5 7 8 7 6 6 7 6 6 7 6 6 8 5 3 7 7 7 11 12 7 3 3 3 3 3 4 7 7 9 9 11 10 9 9 9 8 7 7 7
8 7 5 5 6 5 6 8 8 13 16 9 12 11 7 12 13 10 9 12 15 14 4 6 3 2 4 2 1 0 0 4 4 5 7 6 8 6 5 8 9 8 8
7 6 4 6 6 7 7 6 7 10 6 11 18 11 13 17 14 12 11 13 14 8 2 4 3 4 4 3 2 1 0 1 1 1 1 5 7 5 6 1 4 8 4
7 8 4 5 6 8 7 6 6 7 8 10 8 10 12 13 14 11 10 12 3 3 3 5 5 6 5 5 4 3 3 3 3 3 3 3 4 5 8 7 4 6 5
8 7 8 6 6 7 6 7 5 6 7 9 11 1 6 10 10 10 8 3 3 5 5 4 3 4 5 5 5 4 5 4 4 4 5 5 5 5 5 6 6 6 7
9 12 11 7 7 6 5 6 4 3 7 8 8 6 1 3 1 2 2 2 3 3 3 3 3 2 3 4 4 4 4 5 6 6 5 5 5 5 5 5 5 5 5
8 8 13 7 5 7 6 5 3 5 8 7 5 6 5 3 3 2 4 4 3 3 2 2 3 4 4 4 3 4 4 5 5 6 5 5 5 6 5 5 5 6 6
8 7 8 8 7 9 7 5 3 4 6 8 7 3 5 2 3 4 3 2 3 2 0 1 1 3 3 3 3 3 4 4 4 5 5 6 6 6 6 6 6 6 6
9 10 9 9 9 8 10 9 8 7 6 7 9 10 10 7 7 7 7 5 2 3 4 4 5 3 0 2 1 1 2 3 3 3 5 5 5 5 5 5 5 4 3
9 10 10 9 8 10 9 10 9 8 6 8 11 10 9 10 10 11 10 10 10 9 9 8 8 11 8 4 3 4 4 4 0 4 5 4 4 5 4 3 3 4 4
10 10 10 10 9 9 9 11 10 10 9 10 12 12 11 10 10 10 11 10 10 10 11 10 10 12 14 14 13 12 10 7 6 4 2 3 3 5 4 4 4 4 5
10 10 9 9 9 9 9 9 9 10 11 11 10 9 10 11 11 11 10 11 10 10 12 10 12 16 17 14 15 13 10 9 9 8 3 0 2 3 3 3 5 3 4
Wind_Direction
294 263 261 269 267 266 256 260 257 265 268 277 274 266 257 248 233 222 219 218 216 234 234 231 235 230 231 216 208 220 225 218 243 254 240 252 259 243 247 255 256 250 244
286 285 280 285 296 287 272 269 271 273 272 258 267 273 270 257 244 229 228 223 225 226 235 242 241 213 226 220 220 222 225 222 229 251 247 244 235 225 241 247 246 220 237
253 248 269 278 271 266 267 271 275 275 277 278 270 270 270 266 259 247 232 232 230 230 231 235 245 239 237 225 227 231 223 221 222 233 249 232 245 208 237 234 242 221 239
281 310 280 268 267 270 267 261 264 272 275 277 276 273 269 268 261 257 250 240 238 237 235 237 241 235 233 229 227 230 229 221 220 226 235 236 234 213 226 246 240 216 240
279 285 278 284 284 282 277 264 264 262 265 267 274 277 275 269 262 258 252 246 243 243 238 238 242 240 238 235 229 229 226 227 224 217 231 234 227 213 209 222 205 177 192
283 276 279 283 284 279 273 268 268 270 268 272 272 271 275 271 262 250 249 253 249 245 248 244 244 240 239 237 232 235 225 221 225 220 224 232 232 216 200 201 222 146 209
270 284 291 292 289 283 277 267 261 267 273 274 274 272 272 273 264 259 254 254 253 253 252 253 252 244 240 244 234 230 230 218 218 220 218 226 235 208 189 204 206 174 194
276 281 288 287 285 282 274 262 268 271 275 277 277 275 277 280 272 268 262 263 260 258 252 251 253 252 235 227 236 227 228 226 226 221 229 238 238 212 205 203 210 216 150
288 287 287 286 284 283 274 276 279 279 280 277 276 277 276 286 281 273 266 262 257 259 254 250 247 252 244 216 227 223 226 227 224 226 233 226 227 217 197 187 192 200 201
291 295 295 293 288 281 283 286 283 266 281 284 277 266 260 280 291 287 271 260 264 261 254 245 243 247 243 208 219 223 221 224 215 217 228 233 227 226 198 212 199 204 198
289 287 288 292 291 279 282 281 279 285 286 284 279 280 267 267 301 300 290 266 267 279 270 258 248 230 240 218 210 218 224 221 210 211 218 225 225 220 217 210 210 202 202
279 279 291 293 293 288 283 288 281 282 288 288 291 290 276 274 275 276 286 281 279 268 269 273 266 233 234 233 216 231 228 204 206 214 217 217 220 212 205 206 206 213 222
279 284 285 293 297 287 285 285 286 280 280 282 286 303 295 305 306 290 283 295 298 280 263 262 266 280 263 246 232 231 216 220 217 223 234 233 218 224 212 197 197 212 208
278 282 287 291 294 290 281 270 269 272 279 268 302 312 311 304 297 321 329 323 313 308 291 273 243 248 252 251 228 216 210 214 213 222 231 219 190 225 207 202 188 171 183
279 277 278 285 287 294 283 272 273 262 251 295 306 282 286 295 289 291 302 315 314 298 310 269 233 230 254 253 231 195 195 195 210 222 227 215 203 197 198 176 164 162 186
293 293 284 281 283 287 290 300 261 252 268 274 256 243 265 252 286 305 296 291 291 301 292 352 338 303 251 221 240 148 97 196 223 225 229 178 200 207 187 169 144 167 123
296 294 285 287 289 293 283 297 307 309 274 289 291 237 229 260 292 296 301 299 282 321 319 323 355 357 353 333 68 88 253 2 34 28 194 194 191 174 164 125 102 96 174
308 283 265 266 269 286 286 279 290 310 310 295 252 225 225 240 268 288 309 297 357 6 336 348 16 7 349 1 15 23 27 44 40 40 358 47 55 95 98 123 126 131 132
319 305 299 276 279 274 279 278 283 306 313 299 307 279 230 242 259 285 302 298 356 6 351 6 13 351 3 11 18 26 37 31 31 46 43 45 64 77 88 97 104 112 111
322 308 301 303 300 297 285 264 282 292 290 301 305 315 324 260 262 337 320 328 9 46 39 9 348 341 10 20 22 11 23 40 50 49 45 53 54 68 79 88 99 107 96
322 321 314 305 324 318 276 280 296 299 300 317 318 352 292 282 349 348 356 347 351 1 36 56 40 17 22 33 47 54 57 62 57 70 68 65 63 71 70 79 88 93 100
340 329 344 347 354 2 356 358 357 339 349 354 352 331 306 12 355 337 331 339 344 305 305 308 90 81 59 61 75 82 73 75 80 83 75 86 96 96 92 92 93 100 110
352 356 5 7 12 4 15 15 15 360 2 32 22 9 5 5 18 14 353 336 346 13 3 22 347 1 238 154 134 56 97 99 92 89 107 109 106 108 115 114 117 113 115
16 12 12 5 14 23 15 17 8 7 1 33 54 25 5 3 17 19 15 22 32 36 29 25 24 18 1 9 24 18 350 358 106 174 175 156 144 147 141 141 161 158 155
25 24 17 11 9 10 14 20 21 12 14 32 41 31 7 12 22 22 16 22 36 30 35 31 26 19 28 29 21 19 6 33 20 352 146 148 152 155 158 170 167 180 182
22 22 15 23 11 8 13 10 18 19 26 23 36 22 35 15 16 22 24 21 27 28 31 36 33 30 35 28 23 13 349 28 46 2 25 283 181 180 174 181 185 198 203